Regional Weather Roundup
Issued by NWS

Home | Current Version | Previous Version | Graphics & Text | Print | Product List | Glossary On
Versions: 1 2 3 4 5 6 7 8 9 10 11 12 13 14 15 16 17 18 19 20 21 22 23 24 25 26 27 28 29 30 31 32 33 34 35 36 37 38 39 40 41 42 43 44 45 46 47 48 49 50
000
ASUS45 KBOU 261507
RWRCO

WEATHER ROUNDUP FOR COLORADO
NATIONAL WEATHER SERVICE DENVER/BOULDER CO
800 AM MST FRI DEC 26 2014

NOTE: "FAIR" INDICATES FEW OR NO CLOUDS BELOW 12000 FEET WITH NO
SIGNIFICANT WEATHER AND/OR OBSTRUCTIONS TO VISIBILITY.

COZ001>005-013-030-031-261600-
...NORTHWEST COLORADO...

CITY           SKY/WX    TMP DP  RH WIND       PRES   REMARKS
CRAIG          LGT SNOW  16  11  80 W10       29.80R WCI   4
HAYDEN         CLOUDY    14  10  85 NW8       29.76S WCI   3
MEEKER         LGT SNOW  15   9  76 NW10      29.78R WCI   2
MOUNT WERNER   NOT AVBL
STEAMBOAT SPGS NOT AVBL
WALDEN         NOT AVBL
$$

COZ006>008-011-261600-
...WEST CENTRAL VALLEYS...

CITY           SKY/WX    TMP DP  RH WIND       PRES   REMARKS
GRAND JUNCTION LGT SNOW  22  22 100 NW6       29.79R FOG     WCI  14
MONTROSE       LGT SNOW  24  22  91 CALM      29.79R VSB 3/4
EAGLE          FLURRIES  21  21 100 CALM      29.75R
RIFLE          CLOUDY    23  14  68 NW8       29.78R WCI  14
DELTA          CLOUDY    27  24  87 CALM      29.79R
NUCLA          LGT SNOW  21  19  93 E5        29.80R WCI  15
$$

COZ017>023-064>068-261600-
...SOUTHWEST COLORADO...

CITY           SKY/WX    TMP DP  RH WIND       PRES   REMARKS
DURANGO        SNOW      21  20  96 CALM      29.69R VSB 1/2
CORTEZ         CLEAR      6   4  91 CALM      29.74R
PAGOSA SPRINGS LGT SNOW  22  21  98 CALM      29.68R
TELLURIDE      CLOUDY    12   7  80 CALM      29.66R
WOLF CREEK PAS NOT AVBL
$$

COZ009-010-012-014-032>034-037-058>063-261600-
...CENTRAL COLORADO...

CITY           SKY/WX    TMP DP  RH WIND       PRES   REMARKS
ASPEN          LGT SNOW  18  15  88 N3        29.68R FOG
BUENA VISTA    LGT SNOW  11   7  84 CALM      29.76R VSB 1
COPPER MTN     NOT AVBL
BERTHOUD PASS  NOT AVBL
COTTONWOOD PAS NOT AVBL
GUNNISON       CLOUDY    12  10  92 CALM      29.72S
KREMMLING      NOT AVBL
LEADVILLE      LGT SNOW   4   1  88 CALM      29.65R VSB 1
SALIDA         CLOUDY    17  15  90 N5        29.85R VSB 1   WCI  10
SUNLIGHT       NOT AVBL
WILKERSON PASS NOT AVBL
$$

COZ069>075-261600-
...SAN LUIS VALLEY/SANGRE DE CRISTO MOUNTAINS...

CITY           SKY/WX    TMP DP  RH WIND       PRES   REMARKS
ALAMOSA        FLURRIES  19  15  84 SE9       29.69R WCI   8
LA VETA PASS   NOT AVBL
SAGUACHE       NOT AVBL
$$

COZ035-036-038>040-261600-
...NORTHERN COLORADO FRONT RANGE...

CITY           SKY/WX    TMP DP  RH WIND       PRES   REMARKS
DENVER INTL AP LGT SNOW  15  13  91 NE6       29.94R VSB 1   WCI   6
DMNS CITY PARK   N/A     16  14  93 NE7       29.96R WCI   6
AURORA         LGT SNOW  13  12  97 N1        29.93R FOG
FRONT RANGE AP NOT AVBL
ERIE MUNI ARPT NOT AVBL
BOULDER MUN AP NOT AVBL
CENTENNIAL     SNOW      15  13  91 N5        29.91R VSB 1/2 WCI   8
BROOMFIELD     NOT AVBL
FORT COLLINS   MOCLDY    16  12  86 N3        29.98R
LONGMONT       NOT AVBL
$$

COZ041-046-047-076>085-087-088-261600-
...PIKES PEAK/PALMER DIVIDE AND SOUTHERN FOOTHILLS...

CITY           SKY/WX    TMP DP  RH WIND       PRES   REMARKS
COLO. SPRINGS  LGT SNOW  17  10  74 N9        29.88R WCI   6
A. F. ACADEMY  FLURRIES  15   9  79 N10       29.85S WCI   2
ELLICOTT       NOT AVBL
FALCON         NOT AVBL
FORT CARSON    FLURRIES  17  12  81 NE7       29.88R WCI   8
LIMON          LGT SNOW  17  14  88 N14       29.92R FOG     WCI   3
MONUMENT HILL  NOT AVBL
TRINIDAD       LGT SNOW  19  16  88 N10       29.88R VSB 1   WCI   7
$$

COZ042>045-048>051-090-091-261600-
...NORTHEAST COLORADO...

CITY           SKY/WX    TMP DP  RH WIND       PRES   REMARKS
GREELEY ARPT   CLOUDY    18  10  73 NE6       29.98R VSB 1   WCI   9
AKRON          LGT SNOW  16  14  92 NE15      29.95S FOG     WCI   1
BURLINGTON     LGT SNOW  21  18  88 N15       29.92S VSB 1   WCI   8
WRAY           LGT SNOW  22  20  90 N9        30.00R WCI  12
STERLING       NOT AVBL
HOLYOKE        NOT AVBL
FORT MORGAN    LGT SNOW  18  15  90 NE7       29.98S VSB 3/4 WCI   9
$$

COZ086-089-092>099-261600-
...SOUTHEAST COLORADO...

CITY           SKY/WX    TMP DP  RH WIND       PRES   REMARKS
PUEBLO         FLURRIES  22  15  75 NE10      29.94R WCI  11
LA JUNTA       CLOUDY    23  20  88 NE10      29.93S WCI  12
LAMAR          LGT SNOW  24  22  91 N9        29.95R FOG     WCI  14
SPRINGFIELD      N/A     23  21  92 N18       29.89R WCI   9
$$



USA.gov is the U.S. government's official web portal to all federal, state and local government web resources and services.